Weather History for Wildwood, NJ

Change the Weather History Date:

Wednesday, September 14, 2011

  Actual Average Record
Temperature  
Mean Temperature 78 °F -  
Max Temperature 84 °F 74 °F 89 °F (2008)
Min Temperature 71 °F 60 °F 51 °F (2013)
Cooling Degree Days 12    
Growing Degree Days 28 (Base 50)    
Moisture  
Dew Point 68 °F    
Average Humidity 76    
Maximum Humidity 88    
Minimum Humidity 58    
Precipitation  
Precipitation 0.00 in - - ()
Sea Level Pressure  
Sea Level Pressure 29.96 in    
Wind  
Wind Speed 9 mph (SSW)    
Max Wind Speed 15 mph    
Max Gust Speed 21 mph    
Visibility 10 miles    
Events      
Averages and records for this station are not official NWS values.
T = Trace of Precipitation, MM = Missing Value Source: NWS Daily Summary

Daily Weather History Graph

Daily Weather History Graph

Search for Another Location

Airport:

Trip Planner

Search our weather history database for the weather conditions in past years. The results will help you decide how hot, cold, wet, or windy it might be!

Date:

Astronomy

Sep. 14, 2011 Rise Set
Actual Time 6:39 AM EDT 7:10 PM EDT
Civil Twilight 6:12 AM EDT 7:36 PM EDT
Nautical Twilight 5:41 AM EDT 8:08 PM EDT
Astronomical Twilight 5:08 AM EDT 8:40 PM EDT
Moon 7:55 PM EDT (9/14) 8:46 AM EDT (9/14)
Length of Visible Light 13h 23m
Length of Day
12h 30m
Waning Gibbous, 95% of the Moon is Illuminated
Sep 14
Waning Gibbous
Sep 20
Last Quarter
Sep 27
New
Oct 3
First Quarter
Oct 11
Full

Hourly Weather History & Observations

Time (EDT) Temp. Heat Index Dew Point Humidity Pressure Visibility Wind Dir Wind Speed Gust Speed Precip Events Conditions
12:15 AM 71.6 °F - 64.4 °F 78% 29.97 in 10.0 mi SSW 9.2 mph - N/A   Clear
12:35 AM 71.6 °F - 64.4 °F 78% 29.97 in 10.0 mi SSW 8.1 mph - N/A   Clear
12:55 AM 71.6 °F - 64.4 °F 78% 29.97 in 10.0 mi SSW 8.1 mph - N/A   Clear
1:35 AM 71.6 °F - 64.4 °F 78% 29.97 in 10.0 mi SSW 9.2 mph - N/A   Clear
2:15 AM 71.6 °F - 64.4 °F 78% 29.96 in 10.0 mi SSW 6.9 mph - N/A   Clear
2:35 AM 71.6 °F - 66.2 °F 83% 29.96 in 10.0 mi SSW 9.2 mph - N/A   Clear
2:55 AM 71.6 °F - 66.2 °F 83% 29.95 in 10.0 mi SW 9.2 mph - N/A   Clear
3:15 AM 71.6 °F - 66.2 °F 83% 29.95 in 10.0 mi SSW 9.2 mph - N/A   Clear
3:35 AM 71.6 °F - 66.2 °F 83% 29.95 in 10.0 mi SSW 9.2 mph - N/A   Clear
3:55 AM 71.6 °F - 66.2 °F 83% 29.95 in 10.0 mi SSW 6.9 mph - N/A   Clear
4:15 AM 71.6 °F - 68.0 °F 88% 29.95 in 10.0 mi SSW 9.2 mph - N/A   Clear
4:35 AM 71.6 °F - 68.0 °F 88% 29.95 in 10.0 mi SSW 8.1 mph - N/A   Clear
4:55 AM 71.6 °F - 68.0 °F 88% 29.95 in 10.0 mi SSW 9.2 mph - N/A   Clear
5:15 AM 71.6 °F - 68.0 °F 88% 29.95 in 10.0 mi SSW 8.1 mph - N/A   Clear
5:55 AM 71.6 °F - 68.0 °F 88% 29.95 in 10.0 mi SW 9.2 mph - N/A   Clear
6:15 AM 71.6 °F - 68.0 °F 88% 29.95 in 10.0 mi SSW 9.2 mph - N/A   Clear
6:35 AM 71.6 °F - 68.0 °F 88% 29.95 in 10.0 mi SSW 6.9 mph - N/A   Clear
6:55 AM 71.6 °F - 68.0 °F 88% 29.96 in 10.0 mi SSW 6.9 mph - N/A   Clear
7:15 AM 71.6 °F - 68.0 °F 88% 29.97 in 9.0 mi SW 5.8 mph - N/A   Clear
7:35 AM 71.6 °F - 68.0 °F 88% 29.97 in 9.0 mi SSW 6.9 mph - N/A   Clear
7:55 AM 73.4 °F - 69.8 °F 88% 29.97 in 10.0 mi SW 5.8 mph - N/A   Clear
8:15 AM 73.4 °F - 69.8 °F 88% 29.97 in 10.0 mi SSW 6.9 mph - N/A   Clear
8:35 AM 75.2 °F - 69.8 °F 83% 29.97 in 10.0 mi SW 9.2 mph - N/A   Clear
8:55 AM 75.2 °F - 69.8 °F 83% 29.96 in 10.0 mi SW 11.5 mph - N/A   Clear
9:15 AM 77.0 °F - 69.8 °F 78% 29.97 in 10.0 mi SSW 10.4 mph - N/A   Clear
9:35 AM 77.0 °F - 68.0 °F 74% 29.97 in 10.0 mi SW 8.1 mph - N/A   Clear
9:55 AM 78.8 °F - 68.0 °F 69% 29.97 in 10.0 mi SSW 10.4 mph - N/A   Clear
10:15 AM 80.6 °F 83.2 °F 68.0 °F 65% 29.98 in 10.0 mi SW 10.4 mph - N/A   Clear
10:35 AM 80.6 °F 83.2 °F 68.0 °F 65% 29.98 in 10.0 mi SW 8.1 mph - N/A   Clear
10:55 AM 80.6 °F 82.7 °F 66.2 °F 61% 29.98 in 10.0 mi SW 9.2 mph - N/A   Clear
11:15 AM 80.6 °F 82.7 °F 66.2 °F 61% 29.98 in 10.0 mi SW 10.4 mph - N/A   Clear
11:35 AM 82.4 °F 84.6 °F 66.2 °F 58% 29.98 in 10.0 mi SSW 11.5 mph - N/A   Clear
11:55 AM 82.4 °F 86.3 °F 69.8 °F 66% 29.98 in 10.0 mi South 8.1 mph - N/A   Clear
12:35 PM 84.2 °F 88.4 °F 69.8 °F 62% 29.97 in 10.0 mi South 5.8 mph - N/A   Clear
12:55 PM 84.2 °F 88.4 °F 69.8 °F 62% 29.97 in 10.0 mi SSE 6.9 mph - N/A   Clear
1:15 PM 84.2 °F 88.4 °F 69.8 °F 62% 29.97 in 10.0 mi SSE 11.5 mph - N/A   Clear
1:35 PM 82.4 °F 87.2 °F 71.6 °F 70% 29.97 in 10.0 mi SSE 12.7 mph - N/A   Clear
1:55 PM 82.4 °F 86.3 °F 69.8 °F 66% 29.96 in 10.0 mi South 12.7 mph - N/A   Clear
2:15 PM 84.2 °F 89.6 °F 71.6 °F 66% 29.96 in 10.0 mi SSE 10.4 mph - N/A   Clear
2:35 PM 82.4 °F 87.2 °F 71.6 °F 70% 29.96 in 10.0 mi SSE 15.0 mph - N/A   Clear
2:55 PM 82.4 °F 87.2 °F 71.6 °F 70% 29.95 in 10.0 mi SSE 13.8 mph - N/A   Clear
3:15 PM 82.4 °F 87.2 °F 71.6 °F 70% 29.95 in 10.0 mi SSE 12.7 mph - N/A   Clear
3:35 PM 82.4 °F 87.2 °F 71.6 °F 70% 29.94 in 10.0 mi SSE 12.7 mph - N/A   Clear
3:55 PM 82.4 °F 86.3 °F 69.8 °F 66% 29.94 in 10.0 mi South 13.8 mph - N/A   Clear
4:15 PM 80.6 °F 84.6 °F 71.6 °F 74% 29.94 in 10.0 mi South 13.8 mph - N/A   Clear
4:35 PM 80.6 °F 83.9 °F 69.8 °F 70% 29.94 in 10.0 mi South 13.8 mph - N/A   Clear
5:15 PM 80.6 °F 83.9 °F 69.8 °F 70% 29.93 in 10.0 mi SSE 15.0 mph - N/A   Clear
5:35 PM 78.8 °F - 69.8 °F 74% 29.93 in 10.0 mi South 11.5 mph 17.3 mph N/A   Clear
5:55 PM 78.8 °F - 69.8 °F 74% 29.92 in 10.0 mi South 13.8 mph 20.7 mph N/A   Clear
6:15 PM 78.8 °F - 68.0 °F 69% 29.92 in 10.0 mi South 12.7 mph 20.7 mph N/A   Clear
6:35 PM 77.0 °F - 68.0 °F 74% 29.92 in 9.0 mi South 12.7 mph - N/A   Clear
6:55 PM 75.2 °F - 68.0 °F 78% 29.92 in 9.0 mi South 10.4 mph - N/A   Clear
7:15 PM 75.2 °F - 66.2 °F 73% 29.92 in 9.0 mi South 12.7 mph - N/A   Clear
7:35 PM 75.2 °F - 66.2 °F 73% 29.92 in 10.0 mi South 11.5 mph - N/A   Clear
7:55 PM 75.2 °F - 68.0 °F 78% 29.94 in 9.0 mi South 13.8 mph - N/A   Clear
8:15 PM 75.2 °F - 68.0 °F 78% 29.95 in 10.0 mi South 10.4 mph 17.3 mph N/A   Clear
8:35 PM 73.4 °F - 69.8 °F 88% 29.96 in 9.0 mi South 9.2 mph - N/A   Clear
8:55 PM 73.4 °F - 69.8 °F 88% 29.96 in 6.0 mi South 13.8 mph - N/A   Clear
9:15 PM 73.4 °F - 69.8 °F 88% 29.96 in 9.0 mi South 10.4 mph 16.1 mph N/A   Clear
9:35 PM 73.4 °F - 69.8 °F 88% 29.97 in 10.0 mi South 10.4 mph - N/A   Clear
9:55 PM 73.4 °F - 69.8 °F 88% 29.96 in 10.0 mi South 10.4 mph - N/A   Clear
10:15 PM 73.4 °F - 68.0 °F 83% 29.96 in 10.0 mi South 9.2 mph - N/A   Clear
10:35 PM 73.4 °F - 69.8 °F 88% 29.97 in 10.0 mi South 9.2 mph - N/A   Clear
10:55 PM 73.4 °F - 69.8 °F 88% 29.97 in 10.0 mi South 6.9 mph - N/A   Clear
11:15 PM 73.4 °F - 69.8 °F 88% 29.97 in 10.0 mi SSW 8.1 mph - N/A   Clear
11:35 PM 73.4 °F - 69.8 °F 88% 29.97 in 10.0 mi SSW 6.9 mph - N/A   Clear